| time (UTC) | temp F | wind direction | speed knots | gust knots | rain 1hr in | rain 24hr in | rain mn in | humidity % | barometer mb |
| 20260508065011 | 55 | 360 | 0.0 | 2.6 | 0.00 | 0.00 | 0.00 | 75 | 1016.0 |
| 20260508064534 | 54 | 360 | 0.9 | 2.6 | 0.00 | 0.00 | 0.00 | 77 | 1016.0 |
| 20260508064015 | 53 | 0 | 0.0 | 2.6 | 0.00 | 0.00 | 0.00 | 79 | 1016.1 |
| 20260508063510 | 53 | 0 | 0.0 | 4.3 | 0.00 | 0.00 | 0.00 | 80 | 1016.1 |
| 20260508063029 | 52 | 0 | 0.0 | 4.3 | 0.00 | 0.00 | 0.00 | 81 | 1016.0 |
| 20260508062513 | 52 | 0 | 0.9 | 4.3 | 0.00 | 0.00 | 0.00 | 82 | 1016.0 |
| 20260508062013 | 51 | 0 | 0.0 | 2.6 | 0.00 | 0.00 | 0.00 | 83 | 1015.9 |
| 20260508061530 | 50 | 0 | 0.0 | 2.6 | 0.00 | 0.00 | 0.00 | 84 | 1015.8 |
| 20260508061012 | 50 | 360 | 0.0 | 1.7 | 0.00 | 0.00 | 0.00 | 84 | 1015.8 |
| 20260508060513 | 50 | 360 | 0.0 | 1.7 | 0.00 | 0.00 | 0.00 | 84 | 1015.8 |
| 20260508060032 | 49 | 0 | 0.0 | 1.7 | 0.00 | 0.00 | 0.00 | 85 | 1015.8 |
| 20260508055511 | 49 | 0 | 0.0 | 1.7 | 0.00 | 0.00 | 0.00 | 85 | 1015.8 |
| 20260508055012 | 49 | 360 | 0.0 | 1.7 | 0.00 | 0.00 | 0.00 | 85 | 1015.8 |
| 20260508054531 | 49 | 0 | 0.0 | 0.9 | 0.00 | 0.00 | 0.00 | 85 | 1015.7 |
| 20260508054011 | 49 | 0 | 0.0 | 0.9 | 0.00 | 0.00 | 0.00 | 86 | 1015.7 |
| 20260508053509 | 49 | 0 | 0.0 | 0.0 | 0.00 | 0.00 | 0.00 | 86 | 1015.6 |
| 20260508053031 | 48 | 0 | 0.0 | 0.0 | 0.00 | 0.00 | 0.00 | 86 | 1015.6 |
| 20260508052510 | 48 | 0 | 0.0 | 0.0 | 0.00 | 0.00 | 0.00 | 86 | 1015.6 |
| 20260508052012 | 48 | 0 | 0.0 | 0.0 | 0.00 | 0.00 | 0.00 | 87 | 1015.5 |
| 20260508051530 | 48 | 0 | 0.0 | 0.0 | 0.00 | 0.00 | 0.00 | 87 | 1015.5 |
| 20260508051011 | 48 | 0 | 0.0 | 1.7 | 0.00 | 0.00 | 0.00 | 87 | 1015.5 |
| 20260508050512 | 48 | 0 | 0.0 | 1.7 | 0.00 | 0.00 | 0.00 | 87 | 1015.5 |
| 20260508050030 | 48 | 0 | 0.0 | 1.7 | 0.00 | 0.00 | 0.00 | 86 | 1015.4 |
| 20260508045511 | 48 | 0 | 0.0 | 0.0 | 0.00 | 0.00 | 0.00 | 86 | 1015.4 |
| 20260508045011 | 48 | 0 | 0.0 | 0.0 | 0.00 | 0.00 | 0.00 | 86 | 1015.4 |
| 20260508044530 | 48 | 0 | 0.0 | 0.0 | 0.00 | 0.00 | 0.00 | 86 | 1015.4 |
| 20260508044013 | 48 | 0 | 0.0 | 0.0 | 0.00 | 0.00 | 0.00 | 86 | 1015.4 |
| 20260508043512 | 48 | 0 | 0.0 | 0.0 | 0.00 | 0.00 | 0.00 | 86 | 1015.3 |
| 20260508043049 | 48 | 0 | 0.0 | 0.0 | 0.00 | 0.00 | 0.00 | 85 | 1015.3 |
| 20260508042509 | 48 | 0 | 0.0 | 0.0 | 0.00 | 0.00 | 0.00 | 85 | 1015.4 |
| 20260508042012 | 49 | 0 | 0.0 | 0.0 | 0.00 | 0.00 | 0.00 | 85 | 1015.4 |
| 20260508041534 | 49 | 0 | 0.0 | 0.0 | 0.00 | 0.00 | 0.00 | 85 | 1015.3 |
| 20260508041010 | 49 | 0 | 0.0 | 0.0 | 0.00 | 0.00 | 0.00 | 85 | 1015.3 |
| 20260508040511 | 49 | 0 | 0.0 | 0.0 | 0.00 | 0.00 | 0.00 | 84 | 1015.3 |
| 20260508040031 | 49 | 0 | 0.0 | 1.7 | 0.00 | 0.00 | 0.00 | 84 | 1015.4 |
| 20260508035514 | 49 | 0 | 0.0 | 1.7 | 0.00 | 0.00 | 0.00 | 84 | 1015.3 |
| 20260508035011 | 49 | 360 | 0.0 | 2.6 | 0.00 | 0.00 | 0.00 | 84 | 1015.2 |
| 20260508034530 | 49 | 0 | 0.0 | 2.6 | 0.00 | 0.00 | 0.00 | 84 | 1015.2 |
| 20260508034012 | 49 | 360 | 0.0 | 1.7 | 0.00 | 0.00 | 0.00 | 84 | 1015.3 |
| 20260508033514 | 49 | 360 | 0.0 | 1.7 | 0.00 | 0.00 | 0.00 | 84 | 1015.3 |
| 20260508033031 | 50 | 0 | 0.0 | 1.7 | 0.00 | 0.00 | 0.00 | 84 | 1015.2 |
| 20260508032512 | 50 | 360 | 0.0 | 1.7 | 0.00 | 0.00 | 0.00 | 84 | 1015.3 |
| 20260508032013 | 50 | 360 | 0.0 | 1.7 | 0.00 | 0.00 | 0.00 | 83 | 1015.3 |
| 20260508031528 | 50 | 0 | 0.0 | 1.7 | 0.00 | 0.00 | 0.00 | 83 | 1015.2 |
| 20260508031013 | 50 | 0 | 0.0 | 2.6 | 0.00 | 0.00 | 0.00 | 82 | 1015.3 |
| 20260508030515 | 50 | 0 | 0.0 | 2.6 | 0.00 | 0.00 | 0.00 | 82 | 1015.3 |
| 20260508030042 | 50 | 360 | 0.0 | 2.6 | 0.00 | 0.00 | 0.00 | 82 | 1015.3 |
| 20260508025514 | 50 | 0 | 0.0 | 0.0 | 0.00 | 0.00 | 0.00 | 82 | 1015.2 |
| 20260508025009 | 50 | 0 | 0.0 | 0.0 | 0.00 | 0.00 | 0.00 | 81 | 1015.2 |
| 20260508024534 | 50 | 0 | 0.0 | 0.0 | 0.00 | 0.00 | 0.00 | 81 | 1015.2 |
| 20260508024012 | 50 | 0 | 0.0 | 0.0 | 0.00 | 0.00 | 0.00 | 80 | 1015.2 |
| 20260508023512 | 51 | 0 | 0.0 | 0.9 | 0.00 | 0.00 | 0.00 | 80 | 1015.2 |
| 20260508023030 | 51 | 0 | 0.0 | 1.7 | 0.00 | 0.00 | 0.00 | 80 | 1015.2 |
| 20260508022511 | 51 | 0 | 0.0 | 1.7 | 0.00 | 0.00 | 0.00 | 80 | 1015.1 |
| 20260508022013 | 51 | 0 | 0.0 | 0.9 | 0.00 | 0.00 | 0.00 | 79 | 1015.1 |
| 20260508021532 | 51 | 360 | 0.0 | 0.9 | 0.00 | 0.00 | 0.00 | 79 | 1015.1 |
| 20260508021010 | 51 | 0 | 0.0 | 1.7 | 0.00 | 0.00 | 0.00 | 79 | 1015.3 |
| 20260508020514 | 51 | 0 | 0.0 | 2.6 | 0.00 | 0.00 | 0.00 | 79 | 1015.2 |
| 20260508020027 | 51 | 0 | 0.0 | 2.6 | 0.00 | 0.00 | 0.00 | 79 | 1015.2 |
| 20260508015511 | 51 | 360 | 0.0 | 2.6 | 0.00 | 0.00 | 0.00 | 79 | 1015.2 |
| 20260508015011 | 51 | 360 | 0.9 | 2.6 | 0.00 | 0.00 | 0.00 | 79 | 1015.1 |
| 20260508014529 | 51 | 0 | 0.9 | 4.3 | 0.00 | 0.00 | 0.00 | 79 | 1015.2 |
| 20260508014014 | 51 | 360 | 0.9 | 4.3 | 0.00 | 0.00 | 0.00 | 80 | 1015.2 |
| 20260508013514 | 51 | 360 | 0.0 | 2.6 | 0.00 | 0.00 | 0.00 | 80 | 1015.2 |
| 20260508013031 | 51 | 0 | 0.0 | 2.6 | 0.00 | 0.00 | 0.00 | 80 | 1015.1 |
| 20260508012513 | 51 | 360 | 0.0 | 2.6 | 0.00 | 0.00 | 0.00 | 80 | 1015.1 |
| 20260508012012 | 51 | 0 | 0.0 | 1.7 | 0.00 | 0.00 | 0.00 | 80 | 1015.3 |
| 20260508011530 | 51 | 0 | 0.0 | 1.7 | 0.00 | 0.00 | 0.00 | 80 | 1015.2 |
| 20260508011009 | 51 | 0 | 0.0 | 1.7 | 0.00 | 0.00 | 0.00 | 80 | 1015.2 |
| 20260508010511 | 51 | 0 | 0.0 | 3.5 | 0.00 | 0.00 | 0.00 | 80 | 1015.2 |
| 20260508010030 | 51 | 0 | 0.0 | 3.5 | 0.00 | 0.00 | 0.00 | 80 | 1015.2 |
| 20260508005515 | 51 | 360 | 0.0 | 1.7 | 0.00 | 0.00 | 0.00 | 80 | 1015.2 |
| 20260508005012 | 51 | 0 | 0.0 | 1.7 | 0.00 | 0.00 | 0.00 | 80 | 1015.1 |
| 20260508004529 | 51 | 0 | 0.0 | 1.7 | 0.00 | 0.00 | 0.00 | 79 | 1015.2 |
| 20260508004017 | 51 | 0 | 0.0 | 1.7 | 0.00 | 0.00 | 0.00 | 79 | 1015.2 |
| 20260508003509 | 51 | 0 | 0.0 | 1.7 | 0.00 | 0.00 | 0.00 | 79 | 1015.2 |
| 20260508003030 | 51 | 0 | 0.0 | 0.0 | 0.00 | 0.00 | 0.00 | 79 | 1015.2 |
| 20260508002511 | 51 | 0 | 0.0 | 0.9 | 0.00 | 0.00 | 0.00 | 78 | 1015.2 |
| 20260508002011 | 52 | 0 | 0.0 | 1.7 | 0.00 | 0.00 | 0.00 | 78 | 1015.2 |
| 20260508001528 | 52 | 0 | 0.0 | 1.7 | 0.00 | 0.00 | 0.00 | 78 | 1015.2 |
| 20260508001011 | 52 | 0 | 0.0 | 2.6 | 0.00 | 0.00 | 0.00 | 78 | 1015.1 |
| 20260508000517 | 51 | 360 | 0.0 | 2.6 | 0.00 | 0.00 | 0.00 | 78 | 1015.1 |
| 20260508000029 | 51 | 360 | 0.0 | 2.6 | 0.00 | 0.00 | 0.00 | 77 | 1015.2 |
| 20260507235510 | 52 | 0 | 0.0 | 0.9 | 0.00 | 0.00 | 0.00 | 77 | 1015.2 |
| 20260507235009 | 52 | 0 | 0.0 | 0.0 | 0.00 | 0.00 | 0.00 | 77 | 1015.2 |
| 20260507234535 | 52 | 0 | 0.0 | 0.0 | 0.00 | 0.00 | 0.00 | 77 | 1015.3 |
| 20260507234008 | 52 | 0 | 0.0 | 0.9 | 0.00 | 0.00 | 0.00 | 77 | 1015.3 |
| 20260507233511 | 52 | 0 | 0.0 | 0.9 | 0.00 | 0.00 | 0.00 | 77 | 1015.3 |
| 20260507233031 | 52 | 0 | 0.0 | 0.9 | 0.00 | 0.00 | 0.00 | 77 | 1015.2 |
| 20260507232511 | 52 | 360 | 0.0 | 0.9 | 0.00 | 0.00 | 0.00 | 77 | 1015.3 |
| 20260507232012 | 52 | 0 | 0.0 | 0.9 | 0.00 | 0.00 | 0.00 | 76 | 1015.3 |
| 20260507231530 | 52 | 0 | 0.0 | 0.9 | 0.00 | 0.00 | 0.00 | 76 | 1015.2 |
| 20260507231011 | 52 | 0 | 0.0 | 0.9 | 0.00 | 0.00 | 0.00 | 76 | 1015.2 |
| 20260507230511 | 52 | 0 | 0.0 | 1.7 | 0.00 | 0.00 | 0.00 | 76 | 1015.2 |
| 20260507230029 | 53 | 0 | 0.0 | 2.6 | 0.00 | 0.00 | 0.00 | 76 | 1015.2 |
| 20260507225514 | 53 | 0 | 0.0 | 2.6 | 0.00 | 0.00 | 0.00 | 76 | 1015.1 |
| 20260507225012 | 53 | 0 | 0.0 | 0.9 | 0.00 | 0.00 | 0.00 | 75 | 1015.2 |
| 20260507224530 | 53 | 0 | 0.0 | 1.7 | 0.00 | 0.00 | 0.00 | 75 | 1015.3 |
| 20260507224011 | 53 | 0 | 0.0 | 1.7 | 0.00 | 0.00 | 0.00 | 75 | 1015.3 |
| 20260507223511 | 53 | 0 | 0.0 | 1.7 | 0.00 | 0.00 | 0.00 | 75 | 1015.4 |
| 20260507223028 | 53 | 360 | 0.0 | 1.7 | 0.00 | 0.00 | 0.00 | 74 | 1015.4 |
| 20260507222511 | 53 | 0 | 0.0 | 2.6 | 0.00 | 0.00 | 0.00 | 74 | 1015.4 |
| 20260507222014 | 53 | 0 | 0.0 | 2.6 | 0.00 | 0.00 | 0.00 | 73 | 1015.5 |
| 20260507221530 | 53 | 0 | 0.9 | 2.6 | 0.00 | 0.00 | 0.00 | 73 | 1015.4 |
| 20260507221012 | 53 | 0 | 0.9 | 2.6 | 0.00 | 0.00 | 0.00 | 73 | 1015.5 |
| 20260507220508 | 54 | 0 | 0.0 | 4.3 | 0.00 | 0.00 | 0.00 | 72 | 1015.5 |
| 20260507220028 | 54 | 360 | 0.9 | 4.3 | 0.00 | 0.00 | 0.00 | 72 | 1015.3 |
| 20260507215508 | 54 | 360 | 0.9 | 3.5 | 0.00 | 0.00 | 0.00 | 72 | 1015.3 |
| 20260507215009 | 54 | 360 | 0.9 | 3.5 | 0.00 | 0.00 | 0.00 | 71 | 1015.3 |
| 20260507214527 | 54 | 0 | 0.0 | 2.6 | 0.00 | 0.00 | 0.00 | 71 | 1015.3 |
| 20260507214009 | 54 | 360 | 0.0 | 1.7 | 0.00 | 0.00 | 0.00 | 71 | 1015.4 |
| 20260507213508 | 54 | 360 | 0.0 | 1.7 | 0.00 | 0.00 | 0.00 | 71 | 1015.4 |
| 20260507213029 | 54 | 360 | 0.0 | 1.7 | 0.00 | 0.00 | 0.00 | 70 | 1015.4 |
| 20260507212510 | 55 | 0 | 0.0 | 4.3 | 0.00 | 0.00 | 0.00 | 70 | 1015.4 |
| 20260507212009 | 55 | 360 | 0.9 | 4.3 | 0.00 | 0.00 | 0.00 | 70 | 1015.4 |
| 20260507211530 | 55 | 360 | 0.0 | 3.5 | 0.00 | 0.00 | 0.00 | 69 | 1015.3 |
| 20260507211011 | 55 | 0 | 0.0 | 4.3 | 0.00 | 0.00 | 0.00 | 69 | 1015.3 |
| 20260507210515 | 55 | 360 | 0.9 | 4.3 | 0.00 | 0.00 | 0.00 | 69 | 1015.3 |
| 20260507210028 | 55 | 360 | 0.0 | 2.6 | 0.00 | 0.00 | 0.00 | 69 | 1015.3 |
| 20260507205514 | 55 | 360 | 0.0 | 3.5 | 0.00 | 0.00 | 0.00 | 68 | 1015.3 |
| 20260507205012 | 55 | 360 | 0.0 | 3.5 | 0.00 | 0.00 | 0.00 | 68 | 1015.2 |
| 20260507204528 | 55 | 360 | 0.0 | 0.9 | 0.00 | 0.00 | 0.00 | 68 | 1015.2 |
| 20260507204008 | 55 | 0 | 0.0 | 2.6 | 0.00 | 0.00 | 0.00 | 68 | 1015.1 |
| 20260507203510 | 55 | 0 | 0.0 | 2.6 | 0.00 | 0.00 | 0.00 | 68 | 1015.1 |
| 20260507203028 | 55 | 360 | 0.0 | 2.6 | 0.00 | 0.00 | 0.00 | 67 | 1015.1 |
| 20260507202514 | 55 | 0 | 0.0 | 3.5 | 0.00 | 0.00 | 0.00 | 67 | 1015.1 |
| 20260507202012 | 55 | 360 | 0.0 | 3.5 | 0.00 | 0.00 | 0.00 | 66 | 1015.0 |
| 20260507201535 | 55 | 360 | 0.0 | 0.9 | 0.00 | 0.00 | 0.00 | 66 | 1014.9 |
| 20260507201010 | 55 | 0 | 0.0 | 2.6 | 0.00 | 0.00 | 0.00 | 66 | 1014.9 |
| 20260507200511 | 55 | 0 | 0.0 | 2.6 | 0.00 | 0.00 | 0.00 | 66 | 1014.8 |
| 20260507200034 | 55 | 0 | 0.0 | 2.6 | 0.00 | 0.00 | 0.00 | 66 | 1014.7 |
| 20260507195511 | 55 | 0 | 0.0 | 1.7 | 0.00 | 0.00 | 0.00 | 66 | 1014.6 |
| 20260507195012 | 56 | 0 | 0.0 | 1.7 | 0.00 | 0.00 | 0.00 | 65 | 1014.6 |
| 20260507194537 | 56 | 0 | 0.0 | 1.7 | 0.00 | 0.00 | 0.00 | 65 | 1014.6 |
| 20260507194012 | 56 | 0 | 0.0 | 1.7 | 0.00 | 0.00 | 0.00 | 64 | 1014.5 |
| 20260507193512 | 56 | 360 | 0.0 | 1.7 | 0.00 | 0.00 | 0.00 | 64 | 1014.5 |
| 20260507193032 | 56 | 0 | 0.0 | 2.6 | 0.00 | 0.00 | 0.00 | 64 | 1014.4 |
| 20260507192510 | 56 | 360 | 0.0 | 4.3 | 0.00 | 0.00 | 0.00 | 63 | 1014.4 |
| 20260507192014 | 56 | 360 | 0.9 | 4.3 | 0.00 | 0.00 | 0.00 | 63 | 1014.4 |
| 20260507191534 | 56 | 360 | 0.0 | 4.3 | 0.00 | 0.00 | 0.00 | 62 | 1014.4 |
| 20260507191011 | 56 | 0 | 0.0 | 4.3 | 0.00 | 0.00 | 0.00 | 62 | 1014.3 |
| 20260507190510 | 56 | 360 | 0.0 | 3.5 | 0.00 | 0.00 | 0.00 | 61 | 1014.4 |
| 20260507190031 | 56 | 0 | 0.0 | 1.7 | 0.00 | 0.00 | 0.00 | 61 | 1014.3 |
| 20260507185511 | 56 | 0 | 0.0 | 1.7 | 0.00 | 0.00 | 0.00 | 61 | 1014.3 |
| 20260507185013 | 57 | 0 | 0.0 | 3.5 | 0.00 | 0.00 | 0.00 | 61 | 1014.2 |
| 20260507184532 | 57 | 360 | 0.0 | 3.5 | 0.00 | 0.00 | 0.00 | 61 | 1014.3 |
| 20260507184007 | 57 | 0 | 0.0 | 3.5 | 0.00 | 0.00 | 0.00 | 60 | 1014.3 |
| 20260507183510 | 57 | 0 | 0.0 | 3.5 | 0.00 | 0.00 | 0.00 | 60 | 1014.2 |
| 20260507183036 | 57 | 360 | 0.0 | 4.3 | 0.00 | 0.00 | 0.00 | 59 | 1014.2 |
| 20260507182510 | 57 | 360 | 0.0 | 4.3 | 0.00 | 0.00 | 0.00 | 59 | 1014.2 |
| 20260507182009 | 57 | 360 | 1.7 | 4.3 | 0.00 | 0.00 | 0.00 | 59 | 1014.0 |
| 20260507181528 | 57 | 0 | 0.0 | 4.3 | 0.00 | 0.00 | 0.00 | 59 | 1014.0 |
| 20260507181012 | 57 | 360 | 0.9 | 4.3 | 0.00 | 0.00 | 0.00 | 58 | 1014.0 |
| 20260507180510 | 57 | 360 | 0.9 | 4.3 | 0.00 | 0.00 | 0.00 | 58 | 1014.0 |
| 20260507180027 | 57 | 0 | 0.9 | 3.5 | 0.00 | 0.00 | 0.00 | 58 | 1014.0 |
| 20260507175510 | 58 | 360 | 0.9 | 7.8 | 0.00 | 0.00 | 0.00 | 57 | 1014.0 |
| 20260507175011 | 58 | 360 | 1.7 | 7.8 | 0.00 | 0.00 | 0.00 | 57 | 1014.0 |
| 20260507174533 | 58 | 360 | 0.9 | 3.5 | 0.00 | 0.00 | 0.00 | 56 | 1014.0 |
| 20260507174012 | 58 | 360 | 0.9 | 7.0 | 0.00 | 0.00 | 0.00 | 56 | 1014.0 |
| 20260507173511 | 58 | 360 | 1.7 | 7.0 | 0.00 | 0.00 | 0.00 | 55 | 1014.0 |
| 20260507173032 | 58 | 360 | 1.7 | 7.0 | 0.00 | 0.00 | 0.00 | 55 | 1013.9 |
| 20260507172511 | 58 | 0 | 2.6 | 5.2 | 0.00 | 0.00 | 0.00 | 55 | 1013.9 |
| 20260507172008 | 59 | 360 | 0.9 | 7.8 | 0.00 | 0.00 | 0.00 | 55 | 1014.0 |
| 20260507171531 | 59 | 360 | 1.7 | 8.7 | 0.00 | 0.00 | 0.00 | 54 | 1014.0 |
| 20260507171011 | 59 | 360 | 3.5 | 8.7 | 0.00 | 0.00 | 0.00 | 52 | 1014.0 |
| 20260507170510 | 59 | 360 | 0.9 | 5.2 | 0.00 | 0.00 | 0.00 | 52 | 1014.0 |
| 20260507170028 | 60 | 360 | 1.7 | 5.2 | 0.00 | 0.00 | 0.00 | 51 | 1014.1 |
| 20260507165511 | 60 | 360 | 0.9 | 4.3 | 0.00 | 0.00 | 0.00 | 52 | 1014.0 |
| 20260507165008 | 60 | 360 | 0.9 | 5.2 | 0.00 | 0.00 | 0.00 | 52 | 1014.1 |
| 20260507164531 | 59 | 360 | 0.9 | 5.2 | 0.00 | 0.00 | 0.00 | 53 | 1014.0 |
| 20260507164011 | 59 | 360 | 1.7 | 5.2 | 0.00 | 0.00 | 0.00 | 52 | 1014.1 |
| 20260507163509 | 59 | 360 | 1.7 | 5.2 | 0.00 | 0.00 | 0.00 | 52 | 1014.2 |
| 20260507163030 | 59 | 360 | 0.9 | 8.7 | 0.00 | 0.00 | 0.00 | 52 | 1014.1 |
| 20260507162511 | 59 | 360 | 4.3 | 8.7 | 0.00 | 0.00 | 0.00 | 50 | 1014.0 |
| 20260507162013 | 60 | 360 | 0.9 | 4.3 | 0.00 | 0.00 | 0.00 | 52 | 1014.1 |
| 20260507161528 | 60 | 360 | 0.9 | 7.8 | 0.00 | 0.00 | 0.00 | 51 | 1014.1 |
| 20260507161011 | 60 | 360 | 0.9 | 7.8 | 0.00 | 0.00 | 0.00 | 50 | 1014.0 |
| 20260507160514 | 60 | 360 | 3.5 | 7.8 | 0.00 | 0.00 | 0.00 | 49 | 1014.1 |
| 20260507160034 | 61 | 360 | 0.9 | 5.2 | 0.00 | 0.00 | 0.00 | 49 | 1014.1 |
| 20260507155515 | 62 | 360 | 0.9 | 2.6 | 0.00 | 0.00 | 0.00 | 49 | 1014.1 |
| 20260507155012 | 62 | 360 | 0.0 | 7.0 | 0.00 | 0.00 | 0.00 | 49 | 1014.0 |
| 20260507154530 | 62 | 360 | 1.7 | 7.0 | 0.00 | 0.00 | 0.00 | 49 | 1014.1 |
| 20260507154012 | 62 | 360 | 1.7 | 7.0 | 0.00 | 0.00 | 0.00 | 48 | 1014.2 |
| 20260507153511 | 63 | 360 | 1.7 | 4.3 | 0.00 | 0.00 | 0.00 | 46 | 1014.1 |
| 20260507153031 | 63 | 360 | 0.9 | 4.3 | 0.00 | 0.00 | 0.00 | 47 | 1014.2 |
| 20260507152512 | 63 | 360 | 0.0 | 3.5 | 0.00 | 0.00 | 0.00 | 47 | 1014.3 |
| 20260507152013 | 62 | 0 | 0.0 | 4.3 | 0.00 | 0.00 | 0.00 | 48 | 1014.3 |
| 20260507151528 | 62 | 360 | 1.7 | 5.2 | 0.00 | 0.00 | 0.00 | 47 | 1014.3 |
| 20260507151012 | 62 | 360 | 1.7 | 5.2 | 0.00 | 0.00 | 0.00 | 47 | 1014.4 |
| 20260507150516 | 62 | 360 | 0.9 | 7.0 | 0.00 | 0.00 | 0.00 | 50 | 1014.4 |
| 20260507150029 | 61 | 360 | 1.7 | 7.0 | 0.00 | 0.00 | 0.00 | 49 | 1014.4 |
| 20260507145509 | 62 | 360 | 2.6 | 7.0 | 0.00 | 0.00 | 0.00 | 47 | 1014.4 |
| 20260507145011 | 62 | 360 | 1.7 | 5.2 | 0.00 | 0.00 | 0.00 | 47 | 1014.4 |
| 20260507144528 | 63 | 360 | 0.9 | 7.8 | 0.00 | 0.00 | 0.00 | 46 | 1014.4 |
| 20260507144008 | 63 | 360 | 4.3 | 7.8 | 0.00 | 0.00 | 0.00 | 45 | 1014.4 |
| 20260507143511 | 64 | 360 | 1.7 | 5.2 | 0.00 | 0.00 | 0.00 | 45 | 1014.4 |
| 20260507143048 | 64 | 360 | 1.7 | 4.3 | 0.00 | 0.00 | 0.00 | 45 | 1014.5 |
| 20260507142508 | 63 | 360 | 0.0 | 7.0 | 0.00 | 0.00 | 0.00 | 48 | 1014.6 |
| 20260507142011 | 62 | 0 | 0.9 | 7.0 | 0.00 | 0.00 | 0.00 | 47 | 1014.6 |
| 20260507141539 | 62 | 360 | 0.9 | 5.2 | 0.00 | 0.00 | 0.00 | 50 | 1014.7 |
| 20260507141012 | 61 | 360 | 1.7 | 5.2 | 0.00 | 0.00 | 0.00 | 48 | 1014.7 |
| 20260507140510 | 61 | 360 | 0.0 | 7.0 | 0.00 | 0.00 | 0.00 | 48 | 1014.8 |
| 20260507140028 | 62 | 360 | 2.6 | 7.0 | 0.00 | 0.00 | 0.00 | 47 | 1014.9 |
| 20260507135510 | 62 | 360 | 1.7 | 4.3 | 0.00 | 0.00 | 0.00 | 47 | 1014.7 |
| 20260507135009 | 63 | 25 | 0.9 | 4.3 | 0.00 | 0.00 | 0.00 | 48 | 1014.9 |
| 20260507134530 | 63 | 0 | 0.0 | 4.3 | 0.00 | 0.00 | 0.00 | 48 | 1014.7 |
| 20260507134011 | 63 | 360 | 0.9 | 7.0 | 0.00 | 0.00 | 0.00 | 48 | 1015.0 |
| 20260507133512 | 62 | 360 | 1.7 | 7.0 | 0.00 | 0.00 | 0.00 | 48 | 1015.0 |
| 20260507133030 | 62 | 360 | 0.9 | 5.2 | 0.00 | 0.00 | 0.00 | 50 | 1015.1 |
| 20260507132511 | 61 | 360 | 1.7 | 5.2 | 0.00 | 0.00 | 0.00 | 51 | 1015.0 |
| 20260507132013 | 60 | 360 | 0.0 | 4.3 | 0.00 | 0.00 | 0.00 | 51 | 1014.9 |
| 20260507131532 | 59 | 0 | 0.9 | 4.3 | 0.00 | 0.00 | 0.00 | 52 | 1015.0 |
| 20260507131014 | 59 | 360 | 1.7 | 4.3 | 0.00 | 0.00 | 0.00 | 51 | 1015.0 |
| 20260507130508 | 60 | 360 | 0.9 | 4.3 | 0.00 | 0.00 | 0.00 | 52 | 1015.1 |
| 20260507130038 | 60 | 360 | 0.9 | 4.3 | 0.00 | 0.00 | 0.00 | 52 | 1015.1 |
| 20260507125511 | 60 | 360 | 0.9 | 4.3 | 0.00 | 0.00 | 0.00 | 51 | 1015.1 |
| 20260507125008 | 60 | 360 | 0.0 | 7.0 | 0.00 | 0.00 | 0.00 | 51 | 1015.1 |
| 20260507124530 | 61 | 360 | 0.0 | 7.0 | 0.00 | 0.00 | 0.00 | 51 | 1015.1 |
| 20260507124008 | 61 | 360 | 2.6 | 7.0 | 0.00 | 0.00 | 0.00 | 51 | 1015.1 |
| 20260507123511 | 60 | 0 | 0.9 | 4.3 | 0.00 | 0.00 | 0.00 | 52 | 1015.1 |
| 20260507123032 | 60 | 360 | 1.7 | 4.3 | 0.00 | 0.00 | 0.00 | 51 | 1015.1 |
| 20260507122509 | 60 | 360 | 0.9 | 5.2 | 0.00 | 0.00 | 0.00 | 52 | 1015.1 |
| 20260507122013 | 59 | 360 | 1.7 | 7.0 | 0.00 | 0.00 | 0.00 | 52 | 1015.0 |
| 20260507121528 | 59 | 360 | 1.7 | 7.0 | 0.00 | 0.00 | 0.00 | 52 | 1015.1 |
| 20260507121012 | 59 | 360 | 0.9 | 7.8 | 0.00 | 0.00 | 0.00 | 54 | 1015.1 |
| 20260507120508 | 60 | 360 | 0.9 | 7.8 | 0.00 | 0.00 | 0.00 | 52 | 1015.2 |
| 20260507120028 | 60 | 360 | 3.5 | 7.8 | 0.00 | 0.00 | 0.00 | 50 | 1015.2 |
| 20260507115508 | 62 | 360 | 0.9 | 4.3 | 0.00 | 0.00 | 0.00 | 47 | 1015.3 |
| 20260507115011 | 62 | 360 | 1.7 | 5.2 | 0.00 | 0.00 | 0.00 | 49 | 1015.3 |
| 20260507114529 | 62 | 211 | 0.0 | 7.0 | 0.00 | 0.00 | 0.00 | 51 | 1015.2 |
| 20260507114009 | 61 | 360 | 1.7 | 7.0 | 0.00 | 0.00 | 0.00 | 53 | 1015.2 |
| 20260507113509 | 60 | 360 | 0.9 | 4.3 | 0.00 | 0.00 | 0.00 | 53 | 1015.2 |
| 20260507113027 | 60 | 360 | 1.7 | 5.2 | 0.00 | 0.00 | 0.00 | 55 | 1015.3 |
| 20260507112511 | 61 | 360 | 0.9 | 5.2 | 0.00 | 0.00 | 0.00 | 55 | 1015.4 |
| 20260507112013 | 61 | 360 | 1.7 | 5.2 | 0.00 | 0.00 | 0.00 | 54 | 1015.4 |
| 20260507111529 | 61 | 360 | 0.0 | 7.0 | 0.00 | 0.00 | 0.00 | 52 | 1015.3 |
| 20260507111012 | 61 | 360 | 1.7 | 7.0 | 0.00 | 0.00 | 0.00 | 56 | 1015.3 |
| 20260507110509 | 60 | 360 | 0.9 | 7.8 | 0.00 | 0.00 | 0.00 | 57 | 1015.4 |
| 20260507110028 | 60 | 360 | 0.9 | 7.8 | 0.00 | 0.00 | 0.00 | 57 | 1015.4 |
| 20260507105508 | 59 | 360 | 4.3 | 7.8 | 0.00 | 0.00 | 0.00 | 54 | 1015.5 |
| 20260507105013 | 59 | 0 | 1.7 | 7.0 | 0.00 | 0.00 | 0.00 | 57 | 1015.6 |
| 20260507104530 | 59 | 360 | 1.7 | 5.2 | 0.00 | 0.00 | 0.00 | 59 | 1015.6 |
| 20260507104012 | 59 | 360 | 0.9 | 5.2 | 0.00 | 0.00 | 0.00 | 60 | 1015.6 |
| 20260507103509 | 58 | 360 | 0.9 | 8.7 | 0.00 | 0.00 | 0.00 | 61 | 1015.6 |
| 20260507103029 | 58 | 360 | 1.7 | 8.7 | 0.00 | 0.00 | 0.00 | 61 | 1015.7 |
| 20260507102510 | 58 | 360 | 3.5 | 8.7 | 0.00 | 0.00 | 0.00 | 60 | 1015.7 |
| 20260507102011 | 58 | 360 | 0.9 | 4.3 | 0.00 | 0.00 | 0.00 | 62 | 1015.7 |
| 20260507101530 | 58 | 360 | 0.9 | 5.2 | 0.00 | 0.00 | 0.00 | 61 | 1015.7 |
| 20260507101011 | 58 | 360 | 1.7 | 5.2 | 0.00 | 0.00 | 0.00 | 63 | 1015.9 |
| 20260507100511 | 58 | 360 | 0.9 | 8.7 | 0.00 | 0.00 | 0.00 | 64 | 1015.8 |
| 20260507100036 | 57 | 360 | 1.7 | 8.7 | 0.00 | 0.00 | 0.00 | 64 | 1015.9 |
| 20260507095510 | 57 | 360 | 1.7 | 7.0 | 0.00 | 0.00 | 0.00 | 65 | 1015.8 |
| 20260507095013 | 57 | 360 | 1.7 | 7.0 | 0.00 | 0.00 | 0.00 | 66 | 1015.8 |
| 20260507094531 | 57 | 360 | 1.7 | 7.0 | 0.00 | 0.00 | 0.00 | 66 | 1015.7 |
| 20260507094013 | 56 | 0 | 0.9 | 9.6 | 0.00 | 0.00 | 0.00 | 68 | 1015.8 |
| 20260507093511 | 55 | 360 | 0.9 | 9.6 | 0.00 | 0.00 | 0.00 | 69 | 1015.8 |
| 20260507093028 | 55 | 360 | 0.9 | 7.0 | 0.00 | 0.00 | 0.00 | 70 | 1015.8 |
| 20260507092509 | 55 | 360 | 2.6 | 7.8 | 0.00 | 0.00 | 0.00 | 68 | 1015.8 |
| 20260507092010 | 55 | 360 | 1.7 | 8.7 | 0.00 | 0.00 | 0.00 | 68 | 1015.9 |
| 20260507091534 | 55 | 360 | 0.9 | 8.7 | 0.00 | 0.00 | 0.00 | 70 | 1015.9 |
| 20260507091015 | 54 | 360 | 1.7 | 8.7 | 0.00 | 0.00 | 0.00 | 71 | 1015.9 |
| 20260507090508 | 54 | 360 | 1.7 | 7.8 | 0.00 | 0.00 | 0.00 | 72 | 1016.0 |
| 20260507090029 | 54 | 360 | 3.5 | 8.7 | 0.00 | 0.00 | 0.00 | 71 | 1016.0 |
| 20260507085510 | 54 | 360 | 1.7 | 8.7 | 0.00 | 0.00 | 0.00 | 71 | 1015.9 |
| 20260507085010 | 54 | 360 | 3.5 | 8.7 | 0.00 | 0.00 | 0.00 | 70 | 1016.0 |
| 20260507084531 | 54 | 121 | 1.7 | 7.8 | 0.00 | 0.00 | 0.00 | 71 | 1016.0 |
| 20260507084013 | 55 | 360 | 2.6 | 7.8 | 0.00 | 0.00 | 0.00 | 71 | 1015.9 |
| 20260507083509 | 54 | 0 | 0.0 | 7.0 | 0.00 | 0.00 | 0.00 | 71 | 1015.9 |
| 20260507083028 | 54 | 360 | 1.7 | 7.0 | 0.00 | 0.00 | 0.00 | 71 | 1016.0 |
| 20260507082508 | 54 | 360 | 1.7 | 7.0 | 0.00 | 0.00 | 0.00 | 72 | 1016.0 |
| 20260507082011 | 54 | 360 | 0.0 | 5.2 | 0.00 | 0.00 | 0.00 | 72 | 1015.8 |
| 20260507081529 | 53 | 360 | 1.7 | 5.2 | 0.00 | 0.00 | 0.00 | 72 | 1015.9 |
| 20260507081009 | 53 | 360 | 0.9 | 4.3 | 0.00 | 0.00 | 0.00 | 72 | 1016.0 |
| 20260507080513 | 53 | 360 | 0.9 | 4.3 | 0.00 | 0.00 | 0.00 | 73 | 1015.9 |
| 20260507080030 | 53 | 360 | 0.9 | 7.8 | 0.00 | 0.00 | 0.00 | 73 | 1015.9 |
| 20260507075509 | 53 | 360 | 0.9 | 7.8 | 0.00 | 0.00 | 0.00 | 73 | 1015.9 |
| 20260507075009 | 53 | 360 | 1.7 | 7.8 | 0.00 | 0.00 | 0.00 | 74 | 1015.9 |
| 20260507074528 | 52 | 360 | 0.9 | 4.3 | 0.00 | 0.00 | 0.00 | 75 | 1015.9 |
| 20260507074012 | 52 | 360 | 0.9 | 4.3 | 0.00 | 0.00 | 0.00 | 75 | 1015.8 |
| 20260507073510 | 52 | 360 | 0.9 | 4.3 | 0.00 | 0.00 | 0.00 | 76 | 1015.8 |
| 20260507073031 | 51 | 360 | 0.9 | 3.5 | 0.00 | 0.00 | 0.00 | 77 | 1015.8 |
| 20260507072510 | 51 | 0 | 0.0 | 7.0 | 0.00 | 0.00 | 0.00 | 78 | 1015.8 |
| 20260507072011 | 50 | 360 | 1.7 | 7.0 | 0.00 | 0.00 | 0.00 | 78 | 1015.7 |
| 20260507071534 | 49 | 360 | 0.9 | 4.3 | 0.00 | 0.00 | 0.00 | 80 | 1015.7 |
| 20260507071011 | 49 | 360 | 0.9 | 4.3 | 0.00 | 0.00 | 0.00 | 80 | 1015.6 |
| 20260507070509 | 48 | 360 | 2.6 | 5.2 | 0.00 | 0.00 | 0.00 | 81 | 1015.7 |
| 20260507070033 | 48 | 360 | 0.9 | 5.2 | 0.00 | 0.00 | 0.00 | 83 | 1015.8 |
| 20260507065509 | 47 | 0 | 0.9 | 4.3 | 0.00 | 0.00 | 0.00 | 84 | 1015.8 |